Cancún International Airport
MMUN : rendu visible

Aérodrome :











RETROUVEZ-NOUS SUR...

 
LOGIN :

S'inscrire | Disclaimer

   EN    FR    IT 

 









Légende :    VFR   VFR Marginal   IFR   IFR Intensif   IFR Très Intensif
Visi : 
Plafond : 
>= 8 km
>= 3000ft
5 à 8 km
1000 à 3000 ft
1500m à 5 km
500 à 1000 ft
800 à 1500m
200 à 500 ft
< 800m
< 200 ft
Symboles :   Orages  Brouillard  Fortes neiges  Fortes précipitations  Vent > 20 kt






- Altitude de l'aérodrome : 20 ft
- Code IATA : CUN


MMUN - Cancún International

DERNIER METAR :
  • 241450Z 14010KT 7SM BKN020 27/22 A2998 RMK SLP154 52008 991 8/500 CU HZY 10G17KT

METARs EXPIRÉS :
  • 241348Z 14010KT 7SM BKN020 26/22 A2997 RMK 8/500 CU HZY 10G14KT
  • 241245Z 12009KT 7SM SCT020 25/21 A2996 RMK 8/500 CU 10G12KT

TAF TAF MMUN
Valide du 24 à 12h jusqu'au 25 à 18h UTC


241110Z 2412/2518 10005KT P6SM SCT015 TX28/2420Z TN23/2412Z
FM241800 12012KT P6SM BKN025 BKN080
PROB40 2423/2503 5SM -RA
FM250600 12005KT P6SM SCT015 SCT250
FM251700 14012KT P6SM BKN015



MET'MAP, la Météo Aéronautique d'un coup d'oeil ! - Copyright ORBIFLY Décembre 2007 - Disclaimer

ORBIFLY MET'MAP TEAM :

Programmation & Développement : Alexandra Zaïnal
Sur une idée originale de : Baudouin d'Aumeries
Assistance à la programmation : Marc-Olivier Méhu
Soutien technique & logistique : Manuel Goepfert

Contact : metmap@orbifly.com




SOURCES & CREDITS :

   NOAA       Earth
Advisory